{"data":{"norad_id":63020,"intl_designator":"2025-032R","name":"STARLINK-32677","alt_names":[],"object_type":"PAYLOAD","status":"ACTIVE","operator":null,"country":"US","launch_date":"2025-02-15","launch_site_code":"AFETR","launch_vehicle":null,"mission":null,"orbit_class":"UNKNOWN","rcs_meters":null,"size_class":null,"mass_kg":null,"dimensions":null,"purposes":["comms"],"wikipedia_slug":null,"has_3d_model":false,"image_url":null,"decayed_at":null,"tle_current":{"epoch":"2026-05-25T00:41:27.997728Z","epoch_age_seconds":72893,"freshness":"FRESH","line1":"1 63020U 25032R   26145.02879627  .00027664  00000+0  10109-2 0  9999","line2":"2 63020  42.9999 265.0499 0001088 273.0977  86.9750 15.27584834 72283","mean_motion":15.27584834,"eccentricity":0.0001088,"inclination_deg":42.9999,"raan_deg":265.0499,"arg_perigee_deg":273.0977,"mean_anomaly_deg":86.975,"bstar":0.0010109,"rev_number":7228,"period_min":94.26645040913,"perigee_km":482.2881258704,"apogee_km":483.7811168152,"semimajor_km":6861.1716213428,"source":"CELESTRAK","updated_at":"2026-05-25T13:38:19.838248Z"}}}